Flag for U.S.A. Weather past 2 weeks in Boise, Idaho, U.S.A.

Now
30 °F

Clear.


Feels Like: 30 °F
Forecast: 30 / 43 °F
Wind: No wind

Location: Boise Air Terminal

Current Time: Jan 25, 2015 at 6:09:32 AM

Latest Report: Jan 25, 2015 at 4:53 AM


Visibility: 9 mi

Pressure: 30.50 "Hg

Humidity: 89%

Dew point: 27 °F

Location of BoiseLocation

Historic Weather in Boise — Graph

°F

Boise temperature yesterday

Maximum temperature yesterday: 39 °F (at 3:53 PM)
Minimum temperature yesterday: 30 °F (at 6:53 AM)
Average temperature yesterday: 34 °F

Past Weeks' High & Low Weather Summary

 TemperatureHumidityPressure
High49 °F (Jan 18, 2:53 PM)100% (Jan 10, 4:53 AM)30.68 "Hg (Jan 10, 4:53 AM)
Low23 °F (Jan 22, 7:53 AM)52% (Jan 22, 2:53 PM)30.08 "Hg (Jan 10, 4:01 PM)
Average33 °F87%30.38 "Hg
* Reported Jan 10 4:53 AM — Jan 25 4:53 AM, Boise, Weather by CustomWeather, © 2014

Note: Actual official high and low records may vary slightly from our data, if they occured in-between our weather recording intervals... More about our weather records

Advertising

Boise weather history for previous 24 hours

 ConditionsComfort  
Time TempWeatherWind HumidityBarometerVisibility
4:53 AM
Jan 25
30 °FClear.No wind89%30.50 "Hg9 mi
3:53 AM31 °FClear.6 mph85%30.51 "Hg10 mi
2:53 AM29 °FIce fog.3 mph93%30.53 "Hg6 mi
1:53 AM30 °FClear.No wind92%30.54 "Hg7 mi
12:53 AM30 °FClear.No wind96%30.53 "Hg7 mi
11:53 PM
Jan 24
31 °FClear.No wind92%30.53 "Hg7 mi
10:53 PM32 °FClear.No wind88%30.53 "Hg8 mi
9:53 PM32 °FClear.No wind88%30.53 "Hg8 mi
8:53 PM35 °FClear.No wind85%30.52 "Hg8 mi
7:53 PM37 °FPassing clouds.No wind82%30.52 "Hg9 mi
6:53 PM38 °FOvercast.No wind79%30.52 "Hg10 mi
5:53 PM38 °FOvercast.5 mph79%30.51 "Hg9 mi
4:53 PM39 °FOvercast.No wind73%30.51 "Hg10 mi
3:53 PM39 °FOvercast.No wind73%30.50 "Hg10 mi
2:53 PM38 °FOvercast.No wind79%30.49 "Hg10 mi
1:53 PM38 °FOvercast.No wind76%30.50 "Hg10 mi
12:53 PM35 °FOvercast.No wind82%30.54 "Hg10 mi
11:53 AM34 °FOvercast.No wind82%30.57 "Hg9 mi
10:53 AM33 °FMostly cloudy.No wind85%30.59 "Hg8 mi
9:53 AM32 °FOvercast.No wind85%30.58 "Hg7 mi
8:53 AM31 °FIce fog.No wind89%30.58 "Hg5 mi
7:53 AM30 °FIce fog.No wind92%30.57 "Hg6 mi
6:53 AM30 °FIce fog.5 mph92%30.57 "Hg6 mi
Weather by CustomWeather, © 2014

See weather overviewHow to use our weather pages